Regional Weather Roundup
Issued by NWS Northern Indiana

Home | Current Version | Previous Version | Text Only | Print | Product List | Glossary On
Versions: 1 2 3 4 5 6 7 8 9 10 11 12 13 14 15 16 17 18 19 20 21 22 23 24 25 26 27 28 29 30 31 32 33 34 35 36 37 38 39 40 41 42 43 44 45 46 47 48 49 50
000
ASUS43 KIWX 312210
RWRIWX

KIWX WEATHER ROUNDUP
NATIONAL WEATHER SERVICE NORTHERN INDIANA
600 PM EDT WED AUG 31 2016

NOTE: "FAIR" INDICATES FEW OR NO CLOUDS BELOW 12,000 FEET WITH NO
SIGNIFICANT WEATHER AND/OR OBSTRUCTIONS TO VISIBILITY.

* THESE STATIONS ARE NOT UNDER NWS QUALITY CONTROL. THEY ALSO MAY NOT
  REPORT WEATHER SUCH AS PRECIPITATION OR FOG.

INZ001>027-312300-
NORTHERN INDIANA

CITY           SKY/WX    TMP DP  RH WIND       PRES   REMARKS
GARY*          PTSUNNY   73  63  68 MISG      30.07S
VALPARAISO     MOSUNNY   72  59  63 N16G24    30.05S
MICHIGAN CITY* MOSUNNY   72  61  68 CALM      30.06R
LAPORTE*       MOSUNNY   73  61  66 N18G25    30.05R
KNOX*          CLOUDY    73  37  27 N14       30.03S
SOUTH BEND     CLOUDY    73  60  63 N14       30.03S
ELKHART*       MOSUNNY  N/A N/A N/A NW12      30.01S
GOSHEN         PTSUNNY   77  65  66 N16       30.00S
MONTICELLO*    PTSUNNY   75  59  56 N13G22    30.01R
LOGANSPORT*    CLOUDY    73  64  73 NW9G20    30.01R
ROCHESTER*     CLOUDY    75  64  69 NW13G20   30.01S
WARSAW*        CLOUDY    73  68  83 N10G16    30.00S
ANGOLA*        CLOUDY    73  66  78 N6        29.99S
FORT WAYNE     CLOUDY    75  67  76 NW8       29.98R
HUNTINGTON*    CLOUDY    69  68  96 CALM      29.98F
PERU/GRISSOM   PTSUNNY   76  69  77 N14       29.98R
MARION*        CLOUDY    76  68  77 NW6       29.99R

$$
INZ028>050-312300-
CENTRAL INDIANA

CITY           SKY/WX    TMP DP  RH WIND       PRES   REMARKS
LAFAYETTE      CLOUDY    76  66  71 N15G24    29.99R
KOKOMO*        CLOUDY    77  72  83 N13       29.98S
MUNCIE*        CLOUDY    80  71  74 NW6       29.97S
INDIANAPOLIS   PTSUNNY   82  66  58 N14       29.96S

$$
MIZ043>046-050>051-056>058-064>065-071>073-077>080-312300-
SOUTHWEST LOWER MICHIGAN

CITY           SKY/WX    TMP DP  RH WIND       PRES   REMARKS
BATTLE CREEK   MOSUNNY   75  62  64 N9        30.02S
BENTON HARBOR  SUNNY     74  60  61 N8        30.04R
COLDWATER*     MOSUNNY   75  59  58 N10G21    30.00S
HILLSDALE*     PTSUNNY   74  64  69 N8        30.00S
HOLLAND        SUNNY     77  56  48 VRB7      30.04R
GRAND RAPIDS   MOSUNNY   76  55  48 N12       30.03R
KALAMAZOO      MOSUNNY   75  58  55 N7        30.01S
STURGIS*       PTSUNNY   76  64  66 N9G16     29.99F
THREE RIVERS*  FAIR      77  62  59 N6        30.01S

$$
OHZ001>008-015>018-024>025-312300-
NORTHWEST OHIO

CITY           SKY/WX    TMP DP  RH WIND       PRES   REMARKS
WAUSEON*       PTSUNNY   77  68  73 N12       29.97S
DEFIANCE       CLOUDY    77  69  76 N7        29.96S
FINDLAY        CLOUDY    82  67  60 N10       29.93S
TOLEDO EXPRESS CLOUDY    79  68  69 N13       29.95S
TOLEDO METCALF CLOUDY    79  68  69 N10       29.96S
LIMA           PTSUNNY   78  69  73 N8        29.95S

$$
AND FOR LAKE MICHIGAN COASTAL AND OPEN LAKE BUOY OBSERVATIONS

STATION/POSITION TEMP    WIND        PRES    VSBY  WAVE
                 AIR SEA DIR/SP/G                  HT/PER
                 (F)     (DEG/KT/KT) (MB)    (MI)  (FT/S)
CALUMET HARBOR    73     330/ 10/ 21 1017.8S
MICHIGAN CITY     70     350/ 21/ 24   N/A
BURNS HARBOR      71      10/ 16/ 21 1017.9S
SAINT JOSEPH      71      10/ 14/ 18 1017.9
SOUTH LAKE BUOY   71 74   10/ 21/ 25 1017.1R         5/ 6
4 MI NW BRIDGMAN  69 64  350/ 14/ 19 1017.0R         6/ 5
MICHIGAN CITY     71 66  360/ 17/ 23   N/A           6/ 6

$$
&&




USA.gov is the U.S. government's official web portal to all federal, state and local government web resources and services.